Time,TemperatureF,DewpointF,PressureIn,WindDirection,WindDirectionDegrees,WindSpeedMPH,WindSpeedGustMPH,Humidity,HourlyPrecipIn,Conditions,Clouds,dailyrainin,SolarRadiationWatts/m^2,SoftwareType,DateUTC
2013-07-01 00:03:00,72.0,64.0,29.91,SW,224,2.0,4.0,76,0.00,,,0.00,0,Wunderground v.1.15,2013-07-01 07:03:00,
2013-07-01 00:08:00,71.8,63.8,29.91,SW,225,2.0,2.0,76,0.00,,,0.00,0,Wunderground v.1.15,2013-07-01 07:08:00,
2013-07-01 00:13:00,71.5,63.9,29.91,SW,225,2.0,3.0,77,0.00,,,0.00,0,Wunderground v.1.15,2013-07-01 07:13:00,
2013-07-01 00:18:00,71.1,63.5,29.91,SW,225,2.0,3.0,77,0.00,,,0.00,0,Wunderground v.1.15,2013-07-01 07:18:00,
2013-07-01 00:23:00,70.9,63.3,29.91,SW,227,1.0,2.0,77,0.00,,,0.00,0,Wunderground v.1.15,2013-07-01 07:23:00,
2013-07-01 00:29:00,70.8,63.2,29.91,SW,227,2.0,2.0,77,0.00,,,0.00,0,Wunderground v.1.15,2013-07-01 07:29:00,
2013-07-01 00:34:00,70.6,63.0,29.91,SW,227,2.0,3.0,77,0.00,,,0.00,0,Wunderground v.1.15,2013-07-01 07:34:00,
2013-07-01 00:39:00,70.4,63.2,29.91,SW,227,1.0,1.0,78,0.00,,,0.00,0,Wunderground v.1.15,2013-07-01 07:39:00,
2013-07-01 00:44:00,70.4,63.2,29.91,SW,227,0.0,1.0,78,0.00,,,0.00,0,Wunderground v.1.15,2013-07-01 07:44:00,
2013-07-01 00:49:00,70.3,63.5,29.91,SW,227,1.0,1.0,79,0.00,,,0.00,0,Wunderground v.1.15,2013-07-01 07:49:00,
2013-07-01 00:54:00,69.9,63.1,29.91,SW,227,0.0,2.0,79,0.00,,,0.00,0,Wunderground v.1.15,2013-07-01 07:54:00,
2013-07-01 01:00:00,69.8,63.3,29.91,SW,227,0.0,0.0,80,0.00,,,0.00,0,Wunderground v.1.15,2013-07-01 08:00:00,
2013-07-01 01:05:00,69.8,63.3,29.91,SW,227,0.0,1.0,80,0.00,,,0.00,0,Wunderground v.1.15,2013-07-01 08:05:00,
2013-07-01 01:11:00,69.4,62.6,29.91,SW,227,0.0,2.0,79,0.00,,,0.00,0,Wunderground v.1.15,2013-07-01 08:11:00,
2013-07-01 01:17:00,69.3,62.9,29.91,SW,227,1.0,2.0,80,0.00,,,0.00,0,Wunderground v.1.15,2013-07-01 08:17:00,
2013-07-01 01:22:00,69.1,62.7,29.91,SW,227,1.0,1.0,80,0.00,,,0.00,0,Wunderground v.1.15,2013-07-01 08:22:00,
2013-07-01 01:27:00,68.9,62.8,29.91,SW,227,1.0,1.0,81,0.00,,,0.00,0,Wunderground v.1.15,2013-07-01 08:27:00,
2013-07-01 01:32:00,68.8,62.7,29.91,SW,227,0.0,3.0,81,0.00,,,0.00,0,Wunderground v.1.15,2013-07-01 08:32:00,
2013-07-01 01:37:00,68.8,62.7,29.92,SW,227,1.0,3.0,81,0.00,,,0.00,0,Wunderground v.1.15,2013-07-01 08:37:00,
2013-07-01 01:43:00,68.6,62.5,29.91,SW,227,1.0,1.0,81,0.00,,,0.00,0,Wunderground v.1.15,2013-07-01 08:43:00,
2013-07-01 01:48:00,68.6,62.5,29.91,SW,227,1.0,2.0,81,0.00,,,0.00,0,Wunderground v.1.15,2013-07-01 08:48:00,
2013-07-01 01:53:00,68.4,62.3,29.91,SW,227,1.0,1.0,81,0.00,,,0.00,0,Wunderground v.1.15,2013-07-01 08:53:00,
2013-07-01 01:58:00,68.3,62.6,29.91,SW,227,0.0,1.0,82,0.00,,,0.00,0,Wunderground v.1.15,2013-07-01 08:58:00,
2013-07-01 02:03:00,68.1,62.4,29.91,SW,227,0.0,1.0,82,0.00,,,0.00,0,Wunderground v.1.15,2013-07-01 09:03:00,
2013-07-01 02:09:00,67.8,62.1,29.91,SW,227,0.0,1.0,82,0.00,,,0.00,0,Wunderground v.1.15,2013-07-01 09:09:00,
2013-07-01 02:14:00,67.6,61.9,29.91,SW,227,0.0,0.0,82,0.00,,,0.00,0,Wunderground v.1.15,2013-07-01 09:14:00,
2013-07-01 02:19:00,67.6,62.3,29.91,SW,227,0.0,0.0,83,0.00,,,0.00,0,Wunderground v.1.15,2013-07-01 09:19:00,
2013-07-01 02:24:00,67.6,61.9,29.91,SW,227,0.0,2.0,82,0.00,,,0.00,0,Wunderground v.1.15,2013-07-01 09:24:00,
2013-07-01 02:29:00,67.6,62.3,29.91,SW,227,0.0,2.0,83,0.00,,,0.00,0,Wunderground v.1.15,2013-07-01 09:29:00,
2013-07-01 02:35:00,67.3,62.0,29.91,SW,227,0.0,0.0,83,0.00,,,0.00,0,Wunderground v.1.15,2013-07-01 09:35:00,
2013-07-01 02:40:00,66.9,62.2,29.91,SW,227,0.0,0.0,85,0.00,,,0.00,0,Wunderground v.1.15,2013-07-01 09:40:00,
2013-07-01 02:45:00,66.8,62.1,29.91,SW,227,0.0,0.0,85,0.00,,,0.00,0,Wunderground v.1.15,2013-07-01 09:45:00,
2013-07-01 02:50:00,66.4,62.1,29.91,SW,227,0.0,0.0,86,0.00,,,0.00,0,Wunderground v.1.15,2013-07-01 09:50:00,
2013-07-01 02:55:00,66.1,62.1,29.91,SW,227,0.0,0.0,87,0.00,,,0.00,0,Wunderground v.1.15,2013-07-01 09:55:00,
2013-07-01 03:00:00,65.8,61.8,29.91,SW,227,0.0,0.0,87,0.00,,,0.00,0,Wunderground v.1.15,2013-07-01 10:00:00,
2013-07-01 03:05:00,65.6,61.9,29.92,SW,227,0.0,1.0,88,0.00,,,0.00,0,Wunderground v.1.15,2013-07-01 10:05:00,
2013-07-01 03:11:00,65.5,62.2,29.92,SW,227,0.0,0.0,89,0.00,,,0.00,0,Wunderground v.1.15,2013-07-01 10:11:00,
2013-07-01 03:16:00,65.3,62.0,29.92,SW,227,0.0,0.0,89,0.00,,,0.00,0,Wunderground v.1.15,2013-07-01 10:16:00,
2013-07-01 03:21:00,65.3,62.0,29.92,SW,227,0.0,2.0,89,0.00,,,0.00,0,Wunderground v.1.15,2013-07-01 10:21:00,
2013-07-01 03:27:00,65.2,61.9,29.92,SW,227,0.0,2.0,89,0.00,,,0.00,0,Wunderground v.1.15,2013-07-01 10:27:00,
2013-07-01 03:32:00,64.8,61.8,29.92,SW,227,1.0,1.0,90,0.00,,,0.00,0,Wunderground v.1.15,2013-07-01 10:32:00,
2013-07-01 03:37:00,64.7,62.0,29.92,SW,227,1.0,1.0,91,0.00,,,0.00,0,Wunderground v.1.15,2013-07-01 10:37:00,
2013-07-01 03:42:00,64.5,61.8,29.92,SW,227,0.0,1.0,91,0.00,,,0.00,0,Wunderground v.1.15,2013-07-01 10:42:00,
2013-07-01 03:47:00,64.5,61.8,29.93,SW,227,0.0,1.0,91,0.00,,,0.00,0,Wunderground v.1.15,2013-07-01 10:47:00,
2013-07-01 03:53:00,64.3,61.6,29.93,SW,227,0.0,0.0,91,0.00,,,0.00,0,Wunderground v.1.15,2013-07-01 10:53:00,
2013-07-01 03:58:00,64.2,61.8,29.93,SW,227,0.0,0.0,92,0.00,,,0.00,0,Wunderground v.1.15,2013-07-01 10:58:00,
2013-07-01 04:03:00,64.2,61.8,29.93,SW,227,0.0,1.0,92,0.00,,,0.00,0,Wunderground v.1.15,2013-07-01 11:03:00,
2013-07-01 04:08:00,64.0,61.6,29.93,SW,227,0.0,1.0,92,0.00,,,0.00,0,Wunderground v.1.15,2013-07-01 11:08:00,
2013-07-01 04:13:00,64.0,61.6,29.93,SW,227,0.0,0.0,92,0.00,,,0.00,0,Wunderground v.1.15,2013-07-01 11:13:00,
2013-07-01 04:19:00,63.9,61.5,29.93,SW,227,0.0,0.0,92,0.00,,,0.00,0,Wunderground v.1.15,2013-07-01 11:19:00,
2013-07-01 04:24:00,63.9,61.5,29.93,SW,227,0.0,0.0,92,0.00,,,0.00,0,Wunderground v.1.15,2013-07-01 11:24:00,
2013-07-01 04:29:00,63.7,61.6,29.93,SW,227,0.0,0.0,93,0.00,,,0.00,0,Wunderground v.1.15,2013-07-01 11:29:00,
2013-07-01 04:34:00,63.5,61.4,29.94,SW,227,0.0,0.0,93,0.00,,,0.00,0,Wunderground v.1.15,2013-07-01 11:34:00,
2013-07-01 04:39:00,63.4,61.0,29.94,SW,227,0.0,0.0,92,0.00,,,0.00,0,Wunderground v.1.15,2013-07-01 11:39:00,
2013-07-01 04:45:00,63.1,60.7,29.94,SW,227,0.0,0.0,92,0.00,,,0.00,0,Wunderground v.1.15,2013-07-01 11:45:00,
2013-07-01 04:50:00,63.1,61.0,29.94,SW,227,0.0,0.0,93,0.00,,,0.00,0,Wunderground v.1.15,2013-07-01 11:50:00,
2013-07-01 04:55:00,63.1,61.0,29.94,SW,227,0.0,0.0,93,0.00,,,0.00,0,Wunderground v.1.15,2013-07-01 11:55:00,
2013-07-01 05:00:00,63.1,61.0,29.94,SW,227,0.0,0.0,93,0.00,,,0.00,0,Wunderground v.1.15,2013-07-01 12:00:00,
2013-07-01 05:05:00,63.1,61.0,29.94,SW,227,0.0,0.0,93,0.00,,,0.00,0,Wunderground v.1.15,2013-07-01 12:05:00,
2013-07-01 05:11:00,62.9,60.8,29.94,SW,227,0.0,0.0,93,0.00,,,0.00,0,Wunderground v.1.15,2013-07-01 12:11:00,
2013-07-01 05:16:00,62.7,60.6,29.94,SW,227,0.0,0.0,93,0.00,,,0.00,0,Wunderground v.1.15,2013-07-01 12:16:00,
2013-07-01 05:21:00,62.6,60.5,29.94,SW,227,0.0,0.0,93,0.00,,,0.00,0,Wunderground v.1.15,2013-07-01 12:21:00,
2013-07-01 05:26:00,62.6,60.5,29.94,SW,227,0.0,0.0,93,0.00,,,0.00,5,Wunderground v.1.15,2013-07-01 12:26:00,
2013-07-01 05:31:00,62.4,60.7,29.94,SW,227,0.0,0.0,94,0.00,,,0.00,7,Wunderground v.1.15,2013-07-01 12:31:00,
2013-07-01 05:37:00,62.4,60.7,29.95,SW,227,0.0,0.0,94,0.00,,,0.00,9,Wunderground v.1.15,2013-07-01 12:37:00,
2013-07-01 05:42:00,62.4,60.3,29.95,SW,227,0.0,0.0,93,0.00,,,0.00,12,Wunderground v.1.15,2013-07-01 12:42:00,
2013-07-01 05:47:00,62.4,60.3,29.95,SW,227,0.0,0.0,93,0.00,,,0.00,14,Wunderground v.1.15,2013-07-01 12:47:00,
2013-07-01 05:52:00,62.6,60.5,29.95,SW,227,0.0,0.0,93,0.00,,,0.00,18,Wunderground v.1.15,2013-07-01 12:52:00,
2013-07-01 05:57:00,62.6,60.5,29.95,SW,227,0.0,0.0,93,0.00,,,0.00,21,Wunderground v.1.15,2013-07-01 12:57:00,
2013-07-01 06:03:00,62.4,60.0,29.95,SW,227,0.0,0.0,92,0.00,,,0.00,42,Wunderground v.1.15,2013-07-01 13:03:00,
2013-07-01 06:08:00,62.4,60.0,29.96,SW,227,0.0,0.0,92,0.00,,,0.00,42,Wunderground v.1.15,2013-07-01 13:08:00,
2013-07-01 06:13:00,62.7,60.3,29.95,SW,227,0.0,0.0,92,0.00,,,0.00,62,Wunderground v.1.15,2013-07-01 13:13:00,
2013-07-01 06:18:00,62.9,60.2,29.95,SW,227,0.0,0.0,91,0.00,,,0.00,69,Wunderground v.1.15,2013-07-01 13:18:00,
2013-07-01 06:23:00,63.2,60.5,29.95,SW,227,0.0,0.0,91,0.00,,,0.00,72,Wunderground v.1.15,2013-07-01 13:23:00,
2013-07-01 06:29:00,63.7,61.0,29.95,SW,227,0.0,0.0,91,0.00,,,0.00,88,Wunderground v.1.15,2013-07-01 13:29:00,
2013-07-01 06:34:00,63.9,60.9,29.95,SW,227,0.0,0.0,90,0.00,,,0.00,90,Wunderground v.1.15,2013-07-01 13:34:00,
2013-07-01 06:39:00,64.2,61.2,29.95,SW,227,0.0,0.0,90,0.00,,,0.00,109,Wunderground v.1.15,2013-07-01 13:39:00,
2013-07-01 06:44:00,64.5,61.2,29.95,SW,227,0.0,0.0,89,0.00,,,0.00,116,Wunderground v.1.15,2013-07-01 13:44:00,
2013-07-01 06:49:00,64.8,61.2,29.95,SW,227,0.0,0.0,88,0.00,,,0.00,128,Wunderground v.1.15,2013-07-01 13:49:00,
2013-07-01 06:54:00,65.2,61.2,29.95,SW,227,0.0,0.0,87,0.00,,,0.00,118,Wunderground v.1.15,2013-07-01 13:54:00,
2013-07-01 06:59:00,65.6,61.3,29.96,SW,227,0.0,0.0,86,0.00,,,0.00,160,Wunderground v.1.15,2013-07-01 13:59:00,
2013-07-01 07:04:00,66.1,60.8,29.95,SW,227,0.0,0.0,83,0.00,,,0.00,171,Wunderground v.1.15,2013-07-01 14:04:00,
2013-07-01 07:10:00,66.4,59.7,29.96,NW,322,0.0,3.0,79,0.00,,,0.00,178,Wunderground v.1.15,2013-07-01 14:10:00,
2013-07-01 07:15:00,66.8,59.0,29.95,NW,323,1.0,3.0,76,0.00,,,0.00,190,Wunderground v.1.15,2013-07-01 14:15:00,
2013-07-01 07:20:00,67.1,59.3,29.95,NW,323,1.0,2.0,76,0.00,,,0.00,204,Wunderground v.1.15,2013-07-01 14:20:00,
2013-07-01 07:25:00,67.3,59.1,29.95,NE,51,1.0,3.0,75,0.00,,,0.00,216,Wunderground v.1.15,2013-07-01 14:25:00,
2013-07-01 07:30:00,67.8,59.6,29.95,ENE,62,1.0,1.0,75,0.00,,,0.00,230,Wunderground v.1.15,2013-07-01 14:30:00,
2013-07-01 07:35:00,67.8,59.6,29.95,ENE,64,1.0,2.0,75,0.00,,,0.00,243,Wunderground v.1.15,2013-07-01 14:35:00,
2013-07-01 07:40:00,67.8,60.0,29.95,ENE,64,1.0,1.0,76,0.00,,,0.00,255,Wunderground v.1.15,2013-07-01 14:40:00,
2013-07-01 07:45:00,68.1,60.2,29.95,ENE,64,1.0,1.0,76,0.00,,,0.00,269,Wunderground v.1.15,2013-07-01 14:45:00,
2013-07-01 07:51:00,67.9,60.1,29.95,SSE,163,1.0,2.0,76,0.00,,,0.00,287,Wunderground v.1.15,2013-07-01 14:51:00,
2013-07-01 07:56:00,67.9,60.1,29.95,SSE,163,1.0,2.0,76,0.00,,,0.00,297,Wunderground v.1.15,2013-07-01 14:56:00,
2013-07-01 08:01:00,68.3,60.1,29.95,SSE,163,1.0,2.0,75,0.00,,,0.00,311,Wunderground v.1.15,2013-07-01 15:01:00,
2013-07-01 08:06:00,68.3,60.1,29.95,SSE,163,0.0,2.0,75,0.00,,,0.00,323,Wunderground v.1.15,2013-07-01 15:06:00,
2013-07-01 08:11:00,68.8,60.2,29.94,SSE,163,0.0,0.0,74,0.00,,,0.00,334,Wunderground v.1.15,2013-07-01 15:11:00,
2013-07-01 08:17:00,68.9,60.3,29.94,SSW,206,1.0,2.0,74,0.00,,,0.00,355,Wunderground v.1.15,2013-07-01 15:17:00,
2013-07-01 08:22:00,68.4,60.2,29.95,SSW,209,1.0,3.0,75,0.00,,,0.00,367,Wunderground v.1.15,2013-07-01 15:22:00,
2013-07-01 08:27:00,68.3,60.1,29.94,SSW,211,1.0,3.0,75,0.00,,,0.00,381,Wunderground v.1.15,2013-07-01 15:27:00,
2013-07-01 08:32:00,68.6,60.0,29.94,SSW,200,2.0,2.0,74,0.00,,,0.00,394,Wunderground v.1.15,2013-07-01 15:32:00,
2013-07-01 08:37:00,68.6,59.6,29.94,NW,309,2.0,5.0,73,0.00,,,0.00,408,Wunderground v.1.15,2013-07-01 15:37:00,
2013-07-01 08:43:00,69.4,59.6,29.94,West,278,2.0,3.0,71,0.00,,,0.00,422,Wunderground v.1.15,2013-07-01 15:43:00,
2013-07-01 08:48:00,69.8,60.4,29.94,West,278,1.0,3.0,72,0.00,,,0.00,434,Wunderground v.1.15,2013-07-01 15:48:00,
2013-07-01 08:53:00,70.1,60.7,29.94,West,259,1.0,2.0,72,0.00,,,0.00,448,Wunderground v.1.15,2013-07-01 15:53:00,
2013-07-01 08:58:00,70.4,60.5,29.95,West,263,1.0,2.0,71,0.00,,,0.00,461,Wunderground v.1.15,2013-07-01 15:58:00,
2013-07-01 09:03:00,71.3,60.6,29.95,WSW,245,1.0,4.0,69,0.00,,,0.00,475,Wunderground v.1.15,2013-07-01 16:03:00,
2013-07-01 09:09:00,70.9,60.6,29.94,WSW,246,1.0,4.0,70,0.00,,,0.00,492,Wunderground v.1.15,2013-07-01 16:09:00,
2013-07-01 09:14:00,71.6,60.9,29.94,WSW,246,1.0,2.0,69,0.00,,,0.00,504,Wunderground v.1.15,2013-07-01 16:14:00,
2013-07-01 09:19:00,72.0,61.3,29.94,SSE,152,1.0,2.0,69,0.00,,,0.00,517,Wunderground v.1.15,2013-07-01 16:19:00,
2013-07-01 09:24:00,71.8,61.5,29.94,South,182,2.0,3.0,70,0.00,,,0.00,531,Wunderground v.1.15,2013-07-01 16:24:00,
2013-07-01 09:29:00,71.8,61.5,29.94,South,176,2.0,3.0,70,0.00,,,0.00,545,Wunderground v.1.15,2013-07-01 16:29:00,
2013-07-01 09:34:00,72.0,61.3,29.94,SSW,197,2.0,2.0,69,0.00,,,0.00,555,Wunderground v.1.15,2013-07-01 16:34:00,
2013-07-01 09:39:00,72.1,61.0,29.94,SSW,198,2.0,3.0,68,0.00,,,0.00,568,Wunderground v.1.15,2013-07-01 16:39:00,
2013-07-01 09:44:00,72.0,61.3,29.94,SSE,149,2.0,4.0,69,0.00,,,0.00,578,Wunderground v.1.15,2013-07-01 16:44:00,
2013-07-01 09:49:00,72.5,61.7,29.94,SW,215,2.0,4.0,69,0.00,,,0.00,592,Wunderground v.1.15,2013-07-01 16:49:00,
2013-07-01 09:54:00,72.7,61.5,29.94,SSW,213,2.0,4.0,68,0.00,,,0.00,603,Wunderground v.1.15,2013-07-01 16:54:00,
2013-07-01 09:59:00,72.5,61.3,29.94,SW,229,2.0,4.0,68,0.00,,,0.00,613,Wunderground v.1.15,2013-07-01 16:59:00,
2013-07-01 10:05:00,72.5,61.3,29.94,SSW,210,2.0,3.0,68,0.00,,,0.00,624,Wunderground v.1.15,2013-07-01 17:05:00,
2013-07-01 10:11:00,73.3,61.7,29.94,SW,214,2.0,3.0,67,0.00,,,0.00,638,Wunderground v.1.15,2013-07-01 17:11:00,
2013-07-01 10:17:00,73.5,61.9,29.94,SSE,159,2.0,3.0,67,0.00,,,0.00,647,Wunderground v.1.15,2013-07-01 17:17:00,
2013-07-01 10:22:00,73.9,61.8,29.94,SE,128,2.0,3.0,66,0.00,,,0.00,659,Wunderground v.1.15,2013-07-01 17:22:00,
2013-07-01 10:27:00,73.9,62.2,29.94,SSE,165,2.0,4.0,67,0.00,,,0.00,668,Wunderground v.1.15,2013-07-01 17:27:00,
2013-07-01 10:32:00,74.0,61.9,29.94,SE,128,2.0,2.0,66,0.00,,,0.00,679,Wunderground v.1.15,2013-07-01 17:32:00,
2013-07-01 10:38:00,74.4,62.3,29.94,South,173,2.0,3.0,66,0.00,,,0.00,691,Wunderground v.1.15,2013-07-01 17:38:00,
2013-07-01 10:43:00,74.7,62.6,29.94,East,86,2.0,3.0,66,0.00,,,0.00,700,Wunderground v.1.15,2013-07-01 17:43:00,
2013-07-01 10:48:00,75.3,62.7,29.94,ESE,121,2.0,3.0,65,0.00,,,0.00,710,Wunderground v.1.15,2013-07-01 17:48:00,
2013-07-01 10:54:00,75.8,62.8,29.94,South,176,1.0,2.0,64,0.00,,,0.00,722,Wunderground v.1.15,2013-07-01 17:54:00,
2013-07-01 10:59:00,76.3,62.8,29.94,South,176,1.0,2.0,63,0.00,,,0.00,728,Wunderground v.1.15,2013-07-01 17:59:00,
2013-07-01 11:04:00,77.0,63.0,29.94,ESE,121,1.0,6.0,62,0.00,,,0.00,738,Wunderground v.1.15,2013-07-01 18:04:00,
2013-07-01 11:09:00,76.7,63.2,29.94,SE,139,2.0,6.0,63,0.00,,,0.00,744,Wunderground v.1.15,2013-07-01 18:09:00,
2013-07-01 11:15:00,76.5,63.4,29.94,South,190,2.0,4.0,64,0.00,,,0.00,752,Wunderground v.1.15,2013-07-01 18:15:00,
2013-07-01 11:20:00,76.1,63.0,29.94,SSE,167,3.0,3.0,64,0.00,,,0.00,766,Wunderground v.1.15,2013-07-01 18:20:00,
2013-07-01 11:25:00,76.3,63.2,29.94,SSE,165,2.0,3.0,64,0.00,,,0.00,761,Wunderground v.1.15,2013-07-01 18:25:00,
2013-07-01 11:30:00,76.5,63.4,29.94,SE,144,2.0,2.0,64,0.00,,,0.00,766,Wunderground v.1.15,2013-07-01 18:30:00,
2013-07-01 11:35:00,77.0,63.4,29.93,ESE,120,2.0,3.0,63,0.00,,,0.00,772,Wunderground v.1.15,2013-07-01 18:35:00,
2013-07-01 11:41:00,77.6,64.5,29.94,South,174,1.0,3.0,64,0.00,,,0.00,782,Wunderground v.1.15,2013-07-01 18:41:00,
2013-07-01 11:46:00,77.7,64.1,29.93,SSE,164,2.0,3.0,63,0.00,,,0.00,782,Wunderground v.1.15,2013-07-01 18:46:00,
2013-07-01 11:51:00,77.6,64.0,29.94,SE,136,2.0,2.0,63,0.00,,,0.00,796,Wunderground v.1.15,2013-07-01 18:51:00,
2013-07-01 11:56:00,78.1,64.5,29.93,SE,137,2.0,2.0,63,0.00,,,0.00,803,Wunderground v.1.15,2013-07-01 18:56:00,
2013-07-01 12:01:00,78.6,64.5,29.93,SE,144,1.0,2.0,62,0.00,,,0.00,809,Wunderground v.1.15,2013-07-01 19:01:00,
2013-07-01 12:07:00,78.3,64.2,29.93,South,181,2.0,4.0,62,0.00,,,0.00,821,Wunderground v.1.15,2013-07-01 19:07:00,
2013-07-01 12:12:00,78.5,64.4,29.94,SSE,153,2.0,4.0,62,0.00,,,0.00,824,Wunderground v.1.15,2013-07-01 19:12:00,
2013-07-01 12:17:00,79.0,64.9,29.93,ESE,103,2.0,4.0,62,0.00,,,0.00,826,Wunderground v.1.15,2013-07-01 19:17:00,
2013-07-01 12:22:00,79.2,65.1,29.93,SE,146,3.0,3.0,62,0.00,,,0.00,835,Wunderground v.1.15,2013-07-01 19:22:00,
2013-07-01 12:27:00,79.4,64.8,29.93,SSE,161,2.0,3.0,61,0.00,,,0.00,838,Wunderground v.1.15,2013-07-01 19:27:00,
2013-07-01 12:32:00,79.2,65.1,29.94,South,175,2.0,2.0,62,0.00,,,0.00,838,Wunderground v.1.15,2013-07-01 19:32:00,
2013-07-01 12:37:00,79.6,65.0,29.93,South,169,3.0,3.0,61,0.00,,,0.00,844,Wunderground v.1.15,2013-07-01 19:37:00,
2013-07-01 12:42:00,79.8,64.7,29.93,SSE,167,2.0,3.0,60,0.00,,,0.00,846,Wunderground v.1.15,2013-07-01 19:42:00,
2013-07-01 12:47:00,80.1,65.0,29.93,SSE,168,2.0,3.0,60,0.00,,,0.00,847,Wunderground v.1.15,2013-07-01 19:47:00,
2013-07-01 12:52:00,80.7,65.0,29.93,SSE,158,1.0,2.0,59,0.00,,,0.00,853,Wunderground v.1.15,2013-07-01 19:52:00,
2013-07-01 12:57:00,80.9,65.2,29.93,ESE,109,2.0,2.0,59,0.00,,,0.00,851,Wunderground v.1.15,2013-07-01 19:57:00,
2013-07-01 13:03:00,81.4,65.7,29.93,ESE,121,2.0,4.0,59,0.00,,,0.00,853,Wunderground v.1.15,2013-07-01 20:03:00,
2013-07-01 13:08:00,81.8,65.6,29.93,East,95,2.0,4.0,58,0.00,,,0.00,854,Wunderground v.1.15,2013-07-01 20:08:00,
2013-07-01 13:13:00,82.2,65.4,29.93,ESE,123,2.0,2.0,57,0.00,,,0.00,854,Wunderground v.1.15,2013-07-01 20:13:00,
2013-07-01 13:18:00,82.4,66.1,29.93,ESE,123,2.0,3.0,58,0.00,,,0.00,856,Wunderground v.1.15,2013-07-01 20:18:00,
2013-07-01 13:23:00,82.4,65.6,29.93,WSW,247,3.0,4.0,57,0.00,,,0.00,856,Wunderground v.1.15,2013-07-01 20:23:00,
2013-07-01 13:29:00,82.8,65.5,29.93,East,87,3.0,4.0,56,0.00,,,0.00,851,Wunderground v.1.15,2013-07-01 20:29:00,
2013-07-01 13:34:00,83.4,66.1,29.93,South,169,2.0,2.0,56,0.00,,,0.00,853,Wunderground v.1.15,2013-07-01 20:34:00,
2013-07-01 13:39:00,83.6,66.2,29.93,SSW,205,2.0,6.0,56,0.00,,,0.00,851,Wunderground v.1.15,2013-07-01 20:39:00,
2013-07-01 13:44:00,83.4,66.6,29.93,SE,136,2.0,2.0,57,0.00,,,0.00,849,Wunderground v.1.15,2013-07-01 20:44:00,
2013-07-01 13:49:00,83.6,66.8,29.93,ESE,123,2.0,3.0,57,0.00,,,0.00,847,Wunderground v.1.15,2013-07-01 20:49:00,
2013-07-01 13:55:00,84.0,66.1,29.93,SSW,209,2.0,4.0,55,0.00,,,0.00,849,Wunderground v.1.15,2013-07-01 20:55:00,
2013-07-01 14:00:00,84.3,66.4,29.92,SSE,153,2.0,2.0,55,0.00,,,0.00,847,Wunderground v.1.15,2013-07-01 21:00:00,
2013-07-01 14:05:00,84.5,66.6,29.92,SE,129,2.0,5.0,55,0.00,,,0.00,842,Wunderground v.1.15,2013-07-01 21:05:00,
2013-07-01 14:11:00,85.1,66.6,29.92,SSE,162,2.0,2.0,54,0.00,,,0.00,837,Wunderground v.1.15,2013-07-01 21:11:00,
2013-07-01 14:17:00,85.7,66.6,29.92,SSE,156,1.0,2.0,53,0.00,,,0.00,835,Wunderground v.1.15,2013-07-01 21:17:00,
2013-07-01 14:22:00,86.5,66.8,29.92,SSE,155,1.0,1.0,52,0.00,,,0.00,830,Wunderground v.1.15,2013-07-01 21:22:00,
2013-07-01 14:27:00,86.7,67.0,29.93,SE,124,1.0,2.0,52,0.00,,,0.00,826,Wunderground v.1.15,2013-07-01 21:27:00,
2013-07-01 14:32:00,86.7,67.5,29.92,South,170,1.0,2.0,53,0.00,,,0.00,823,Wunderground v.1.15,2013-07-01 21:32:00,
2013-07-01 14:37:00,86.7,67.0,29.92,South,169,1.0,3.0,52,0.00,,,0.00,816,Wunderground v.1.15,2013-07-01 21:37:00,
2013-07-01 14:43:00,86.3,67.2,29.92,SSE,149,2.0,2.0,53,0.00,,,0.00,810,Wunderground v.1.15,2013-07-01 21:43:00,
2013-07-01 14:48:00,86.3,67.2,29.92,East,86,2.0,3.0,53,0.00,,,0.00,802,Wunderground v.1.15,2013-07-01 21:48:00,
2013-07-01 14:53:00,87.0,67.8,29.92,ESE,119,2.0,2.0,53,0.00,,,0.00,795,Wunderground v.1.15,2013-07-01 21:53:00,
2013-07-01 14:58:00,87.2,68.0,29.92,SSE,155,1.0,2.0,53,0.00,,,0.00,789,Wunderground v.1.15,2013-07-01 21:58:00,
2013-07-01 15:03:00,87.2,67.4,29.92,SSW,203,2.0,6.0,52,0.00,,,0.00,782,Wunderground v.1.15,2013-07-01 22:03:00,
2013-07-01 15:09:00,87.4,68.2,29.92,SE,125,2.0,6.0,53,0.00,,,0.00,777,Wunderground v.1.15,2013-07-01 22:09:00,
2013-07-01 15:14:00,87.8,68.0,29.92,SE,130,1.0,2.0,52,0.00,,,0.00,765,Wunderground v.1.15,2013-07-01 22:14:00,
2013-07-01 15:19:00,88.2,67.8,29.93,SE,132,1.0,2.0,51,0.00,,,0.00,754,Wunderground v.1.15,2013-07-01 22:19:00,
2013-07-01 15:24:00,88.2,67.8,29.92,SE,132,2.0,2.0,51,0.00,,,0.00,747,Wunderground v.1.15,2013-07-01 22:24:00,
2013-07-01 15:29:00,88.2,68.4,29.92,SSE,163,2.0,3.0,52,0.00,,,0.00,740,Wunderground v.1.15,2013-07-01 22:29:00,
2013-07-01 15:35:00,88.8,67.8,29.92,SSE,168,2.0,2.0,50,0.00,,,0.00,729,Wunderground v.1.15,2013-07-01 22:35:00,
2013-07-01 15:40:00,89.0,67.4,29.92,East,100,2.0,2.0,49,0.00,,,0.00,719,Wunderground v.1.15,2013-07-01 22:40:00,
2013-07-01 15:45:00,89.3,67.6,29.93,East,96,2.0,3.0,49,0.00,,,0.00,714,Wunderground v.1.15,2013-07-01 22:45:00,
2013-07-01 15:50:00,89.3,67.6,29.93,SE,140,2.0,2.0,49,0.00,,,0.00,700,Wunderground v.1.15,2013-07-01 22:50:00,
2013-07-01 15:55:00,89.3,67.6,29.92,ESE,111,2.0,3.0,49,0.00,,,0.00,691,Wunderground v.1.15,2013-07-01 22:55:00,
2013-07-01 16:01:00,89.7,67.4,29.92,SSE,167,2.0,5.0,48,0.00,,,0.00,682,Wunderground v.1.15,2013-07-01 23:01:00,
2013-07-01 16:06:00,89.5,67.8,29.92,South,169,2.0,5.0,49,0.00,,,0.00,675,Wunderground v.1.15,2013-07-01 23:06:00,
2013-07-01 16:12:00,89.9,67.6,29.92,SE,142,2.0,2.0,48,0.00,,,0.00,661,Wunderground v.1.15,2013-07-01 23:12:00,
2013-07-01 16:18:00,90.3,67.9,29.92,NNE,33,1.0,2.0,48,0.00,,,0.00,643,Wunderground v.1.15,2013-07-01 23:18:00,
2013-07-01 16:23:00,90.7,67.7,29.92,WNW,290,2.0,5.0,47,0.00,,,0.00,635,Wunderground v.1.15,2013-07-01 23:23:00,
2013-07-01 16:28:00,90.1,67.8,29.92,West,281,4.0,7.0,48,0.00,,,0.00,624,Wunderground v.1.15,2013-07-01 23:28:00,
2013-07-01 16:33:00,89.3,67.6,29.92,North,355,6.0,8.0,49,0.00,,,0.00,610,Wunderground v.1.15,2013-07-01 23:33:00,
2013-07-01 16:38:00,89.5,68.4,29.92,West,279,6.0,8.0,50,0.00,,,0.00,599,Wunderground v.1.15,2013-07-01 23:38:00,
2013-07-01 16:43:00,89.3,68.8,29.92,NNW,342,5.0,6.0,51,0.00,,,0.00,587,Wunderground v.1.15,2013-07-01 23:43:00,
2013-07-01 16:48:00,88.8,67.8,29.92,WNW,299,5.0,7.0,50,0.00,,,0.00,571,Wunderground v.1.15,2013-07-01 23:48:00,
2013-07-01 16:53:00,88.0,67.6,29.92,NNW,338,6.0,8.0,51,0.00,,,0.00,561,Wunderground v.1.15,2013-07-01 23:53:00,
2013-07-01 16:58:00,87.8,67.4,29.92,NNW,327,6.0,8.0,51,0.00,,,0.00,548,Wunderground v.1.15,2013-07-01 23:58:00,
2013-07-01 17:03:00,87.8,68.0,29.93,WNW,296,6.0,9.0,52,0.00,,,0.00,533,Wunderground v.1.15,2013-07-02 00:03:00,
2013-07-01 17:08:00,88.2,67.8,29.93,NW,318,5.0,9.0,51,0.00,,,0.00,524,Wunderground v.1.15,2013-07-02 00:08:00,
2013-07-01 17:13:00,88.0,67.6,29.93,North,355,5.0,7.0,51,0.00,,,0.00,515,Wunderground v.1.15,2013-07-02 00:13:00,
2013-07-01 17:19:00,87.6,67.2,29.93,WNW,298,5.0,9.0,51,0.00,,,0.00,501,Wunderground v.1.15,2013-07-02 00:19:00,
2013-07-01 17:24:00,87.6,67.2,29.93,WNW,286,6.0,6.0,51,0.00,,,0.00,485,Wunderground v.1.15,2013-07-02 00:24:00,
2013-07-01 17:29:00,87.2,66.9,29.93,NNW,327,6.0,9.0,51,0.00,,,0.00,476,Wunderground v.1.15,2013-07-02 00:29:00,
2013-07-01 17:34:00,86.7,67.0,29.93,North,355,6.0,11.0,52,0.00,,,0.00,464,Wunderground v.1.15,2013-07-02 00:34:00,
2013-07-01 17:39:00,87.4,67.1,29.93,North,5,5.0,11.0,51,0.00,,,0.00,452,Wunderground v.1.15,2013-07-02 00:39:00,
2013-07-01 17:44:00,87.6,66.7,29.93,NNE,26,3.0,5.0,50,0.00,,,0.00,434,Wunderground v.1.15,2013-07-02 00:44:00,
2013-07-01 17:49:00,87.2,66.9,29.93,ENE,62,4.0,5.0,51,0.00,,,0.00,418,Wunderground v.1.15,2013-07-02 00:49:00,
2013-07-01 17:54:00,87.2,66.9,29.93,NW,324,4.0,7.0,51,0.00,,,0.00,408,Wunderground v.1.15,2013-07-02 00:54:00,
2013-07-01 17:59:00,87.2,66.9,29.93,NW,311,4.0,7.0,51,0.00,,,0.00,396,Wunderground v.1.15,2013-07-02 00:59:00,
2013-07-01 18:05:00,87.8,66.8,29.93,NW,309,4.0,10.0,50,0.00,,,0.00,374,Wunderground v.1.15,2013-07-02 01:05:00,
2013-07-01 18:11:00,87.0,66.7,29.93,NW,309,4.0,4.0,51,0.00,,,0.00,364,Wunderground v.1.15,2013-07-02 01:11:00,
2013-07-01 18:16:00,87.0,65.5,29.93,NNW,328,5.0,8.0,49,0.00,,,0.00,352,Wunderground v.1.15,2013-07-02 01:16:00,
2013-07-01 18:21:00,86.7,65.8,29.93,WNW,293,5.0,5.0,50,0.00,,,0.00,334,Wunderground v.1.15,2013-07-02 01:21:00,
2013-07-01 18:26:00,86.5,65.7,29.93,NW,306,5.0,7.0,50,0.00,,,0.00,322,Wunderground v.1.15,2013-07-02 01:26:00,
2013-07-01 18:31:00,86.5,65.7,29.93,NW,314,4.0,5.0,50,0.00,,,0.00,306,Wunderground v.1.15,2013-07-02 01:31:00,
2013-07-01 18:37:00,86.5,65.1,29.93,NW,324,3.0,7.0,49,0.00,,,0.00,294,Wunderground v.1.15,2013-07-02 01:37:00,
2013-07-01 18:42:00,86.1,64.7,29.94,NE,47,3.0,5.0,49,0.00,,,0.00,283,Wunderground v.1.15,2013-07-02 01:42:00,
2013-07-01 18:47:00,85.9,65.7,29.94,NW,321,3.0,5.0,51,0.00,,,0.00,271,Wunderground v.1.15,2013-07-02 01:47:00,
2013-07-01 18:52:00,85.9,65.1,29.94,NNW,348,3.0,4.0,50,0.00,,,0.00,260,Wunderground v.1.15,2013-07-02 01:52:00,
2013-07-01 18:57:00,86.3,65.5,29.94,NNE,24,2.0,4.0,50,0.00,,,0.00,248,Wunderground v.1.15,2013-07-02 01:57:00,
2013-07-01 19:03:00,85.5,65.3,29.94,NNW,348,3.0,8.0,51,0.00,,,0.00,234,Wunderground v.1.15,2013-07-02 02:03:00,
2013-07-01 19:08:00,85.3,65.1,29.94,NW,316,3.0,8.0,51,0.00,,,0.00,221,Wunderground v.1.15,2013-07-02 02:08:00,
2013-07-01 19:13:00,84.7,65.1,29.95,NW,309,3.0,4.0,52,0.00,,,0.00,207,Wunderground v.1.15,2013-07-02 02:13:00,
2013-07-01 19:18:00,84.3,65.3,29.95,WNW,292,4.0,7.0,53,0.00,,,0.00,195,Wunderground v.1.15,2013-07-02 02:18:00,
2013-07-01 19:23:00,83.4,64.5,29.95,West,275,5.0,6.0,53,0.00,,,0.00,185,Wunderground v.1.15,2013-07-02 02:23:00,
2013-07-01 19:29:00,82.4,64.6,29.95,West,271,6.0,10.0,55,0.00,,,0.00,167,Wunderground v.1.15,2013-07-02 02:29:00,
2013-07-01 19:34:00,82.0,64.2,29.95,West,274,5.0,6.0,55,0.00,,,0.00,158,Wunderground v.1.15,2013-07-02 02:34:00,
2013-07-01 19:39:00,81.6,63.9,29.96,WNW,289,4.0,6.0,55,0.00,,,0.00,146,Wunderground v.1.15,2013-07-02 02:39:00,
2013-07-01 19:44:00,81.2,63.0,29.96,WNW,292,4.0,9.0,54,0.00,,,0.00,132,Wunderground v.1.15,2013-07-02 02:44:00,
2013-07-01 19:49:00,80.9,63.2,29.96,WNW,284,4.0,9.0,55,0.00,,,0.00,118,Wunderground v.1.15,2013-07-02 02:49:00,
2013-07-01 19:55:00,80.9,63.2,29.97,NW,318,3.0,5.0,55,0.00,,,0.00,105,Wunderground v.1.15,2013-07-02 02:55:00,
2013-07-01 20:00:00,80.9,63.7,29.96,WNW,296,3.0,3.0,56,0.00,,,0.00,95,Wunderground v.1.15,2013-07-02 03:00:00,
2013-07-01 20:05:00,80.7,63.5,29.97,North,360,2.0,7.0,56,0.00,,,0.00,84,Wunderground v.1.15,2013-07-02 03:05:00,
2013-07-01 20:11:00,80.3,63.7,29.97,NE,49,1.0,1.0,57,0.00,,,0.00,72,Wunderground v.1.15,2013-07-02 03:11:00,
2013-07-01 20:16:00,80.3,63.2,29.97,NNE,21,1.0,3.0,56,0.00,,,0.00,65,Wunderground v.1.15,2013-07-02 03:16:00,
2013-07-01 20:21:00,79.6,63.0,29.97,North,5,2.0,4.0,57,0.00,,,0.00,56,Wunderground v.1.15,2013-07-02 03:21:00,
2013-07-01 20:26:00,78.6,62.1,29.97,WNW,296,3.0,5.0,57,0.00,,,0.00,47,Wunderground v.1.15,2013-07-02 03:26:00,
2013-07-01 20:31:00,78.1,61.6,29.97,NNW,331,3.0,3.0,57,0.00,,,0.00,40,Wunderground v.1.15,2013-07-02 03:31:00,
2013-07-01 20:36:00,77.7,61.7,29.97,North,350,3.0,5.0,58,0.00,,,0.00,33,Wunderground v.1.15,2013-07-02 03:36:00,
2013-07-01 20:41:00,77.4,61.5,29.97,NW,325,3.0,3.0,58,0.00,,,0.00,25,Wunderground v.1.15,2013-07-02 03:41:00,
2013-07-01 20:47:00,76.8,60.9,29.98,NNE,15,2.0,3.0,58,0.00,,,0.00,21,Wunderground v.1.15,2013-07-02 03:47:00,
2013-07-01 20:52:00,76.5,60.1,29.98,North,9,2.0,4.0,57,0.00,,,0.00,16,Wunderground v.1.15,2013-07-02 03:52:00,
2013-07-01 20:57:00,76.1,59.8,29.98,North,360,2.0,4.0,57,0.00,,,0.00,14,Wunderground v.1.15,2013-07-02 03:57:00,
2013-07-01 21:01:00,75.8,59.5,29.98,WNW,303,3.0,6.0,57,0.00,,,0.00,11,Wunderground v.1.15,2013-07-02 04:01:00,
2013-07-01 21:02:00,75.6,59.3,29.98,NNE,12,3.0,6.0,57,0.00,,,0.00,9,Wunderground v.1.15,2013-07-02 04:02:00,
2013-07-01 21:03:00,75.6,59.3,29.98,NW,318,3.0,6.0,57,0.00,,,0.00,9,Wunderground v.1.15,2013-07-02 04:03:00,
2013-07-01 21:06:00,75.4,59.1,29.98,NW,325,2.0,6.0,57,0.00,,,0.00,7,Wunderground v.1.15,2013-07-02 04:06:00,
2013-07-01 21:08:00,75.3,59.0,29.98,WNW,298,2.0,6.0,57,0.00,,,0.00,7,Wunderground v.1.15,2013-07-02 04:08:00,
2013-07-01 21:13:00,75.1,58.8,29.98,WNW,298,2.0,4.0,57,0.00,,,0.00,7,Wunderground v.1.15,2013-07-02 04:13:00,
2013-07-01 21:18:00,74.9,59.1,29.98,WNW,298,1.0,4.0,58,0.00,,,0.00,5,Wunderground v.1.15,2013-07-02 04:18:00,
2013-07-01 21:23:00,74.7,59.4,29.99,WNW,298,0.0,1.0,59,0.00,,,0.00,0,Wunderground v.1.15,2013-07-02 04:23:00,
2013-07-01 21:28:00,74.6,59.8,29.99,WNW,298,1.0,3.0,60,0.00,,,0.00,0,Wunderground v.1.15,2013-07-02 04:28:00,
2013-07-01 21:33:00,74.2,59.4,29.99,WNW,298,1.0,2.0,60,0.00,,,0.00,0,Wunderground v.1.15,2013-07-02 04:33:00,
2013-07-01 21:39:00,74.0,59.7,29.99,WNW,298,1.0,2.0,61,0.00,,,0.00,0,Wunderground v.1.15,2013-07-02 04:39:00,
2013-07-01 21:44:00,73.9,60.1,29.99,WNW,298,0.0,2.0,62,0.00,,,0.00,0,Wunderground v.1.15,2013-07-02 04:44:00,
2013-07-01 21:49:00,73.5,60.1,29.99,WNW,298,1.0,3.0,63,0.00,,,0.00,0,Wunderground v.1.15,2013-07-02 04:49:00,
2013-07-01 21:54:00,73.2,60.3,29.99,WNW,298,2.0,4.0,64,0.00,,,0.00,0,Wunderground v.1.15,2013-07-02 04:54:00,
2013-07-01 21:59:00,72.8,60.3,30.00,WNW,298,2.0,4.0,65,0.00,,,0.00,0,Wunderground v.1.15,2013-07-02 04:59:00,
2013-07-01 22:05:00,72.5,60.1,30.00,WNW,298,2.0,5.0,65,0.00,,,0.00,0,Wunderground v.1.15,2013-07-02 05:05:00,
2013-07-01 22:11:00,72.1,60.1,30.00,WNW,298,2.0,2.0,66,0.00,,,0.00,0,Wunderground v.1.15,2013-07-02 05:11:00,
2013-07-01 22:16:00,72.0,60.0,30.00,WNW,298,1.0,2.0,66,0.00,,,0.00,0,Wunderground v.1.15,2013-07-02 05:16:00,
2013-07-01 22:22:00,71.8,60.7,30.00,WNW,298,0.0,0.0,68,0.00,,,0.00,0,Wunderground v.1.15,2013-07-02 05:22:00,
2013-07-01 22:27:00,71.3,59.4,30.00,WNW,288,1.0,4.0,66,0.00,,,0.00,0,Wunderground v.1.15,2013-07-02 05:27:00,
2013-07-01 22:32:00,70.9,58.5,30.00,WNW,302,2.0,3.0,65,0.00,,,0.00,0,Wunderground v.1.15,2013-07-02 05:32:00,
2013-07-01 22:37:00,70.8,58.0,30.00,WNW,300,3.0,5.0,64,0.00,,,0.00,0,Wunderground v.1.15,2013-07-02 05:37:00,
2013-07-01 22:42:00,70.4,58.1,30.00,NW,318,3.0,3.0,65,0.00,,,0.00,0,Wunderground v.1.15,2013-07-02 05:42:00,
2013-07-01 22:48:00,70.1,58.2,30.01,NW,319,3.0,3.0,66,0.00,,,0.00,0,Wunderground v.1.15,2013-07-02 05:48:00,
2013-07-01 22:53:00,69.9,58.4,30.01,NW,319,1.0,2.0,67,0.00,,,0.00,0,Wunderground v.1.15,2013-07-02 05:53:00,
2013-07-01 22:58:00,69.6,59.0,30.01,NW,319,0.0,2.0,69,0.00,,,0.00,0,Wunderground v.1.15,2013-07-02 05:58:00,
2013-07-01 23:03:00,69.4,59.2,30.01,NW,319,0.0,5.0,70,0.00,,,0.00,0,Wunderground v.1.15,2013-07-02 06:03:00,
2013-07-01 23:08:00,68.9,59.5,30.01,NW,319,0.0,5.0,72,0.00,,,0.00,0,Wunderground v.1.15,2013-07-02 06:08:00,
2013-07-01 23:14:00,68.3,59.7,30.02,NW,319,0.0,0.0,74,0.00,,,0.00,0,Wunderground v.1.15,2013-07-02 06:14:00,
2013-07-01 23:19:00,67.8,59.6,30.02,NW,319,0.0,0.0,75,0.00,,,0.00,0,Wunderground v.1.15,2013-07-02 06:19:00,
2013-07-01 23:24:00,67.6,59.8,30.02,NW,319,0.0,0.0,76,0.00,,,0.00,0,Wunderground v.1.15,2013-07-02 06:24:00,
2013-07-01 23:29:00,67.4,59.6,30.02,NW,319,0.0,1.0,76,0.00,,,0.00,0,Wunderground v.1.15,2013-07-02 06:29:00,
2013-07-01 23:34:00,67.3,59.5,30.02,NW,319,0.0,0.0,76,0.00,,,0.00,0,Wunderground v.1.15,2013-07-02 06:34:00,
2013-07-01 23:39:00,67.1,59.6,30.02,NW,319,0.0,1.0,77,0.00,,,0.00,0,Wunderground v.1.15,2013-07-02 06:39:00,
2013-07-01 23:44:00,66.9,59.8,30.03,NW,319,0.0,1.0,78,0.00,,,0.00,0,Wunderground v.1.15,2013-07-02 06:44:00,
2013-07-01 23:49:00,66.8,60.1,30.03,NW,319,0.0,1.0,79,0.00,,,0.00,0,Wunderground v.1.15,2013-07-02 06:49:00,
2013-07-01 23:54:00,66.8,61.1,30.03,NW,319,0.0,1.0,82,0.00,,,0.00,0,Wunderground v.1.15,2013-07-02 06:54:00,
2013-07-01 23:59:00,66.8,60.8,30.03,NW,319,0.0,1.0,81,0.00,,,0.00,0,Wunderground v.1.15,2013-07-02 06:59:00,